Location: Barcelona
(41.3830°N, 2.1830°E)
Time: 07:04:46
(UTC+01:00)

ISS - Pass Details

Date: 27 November 2020
Orbit: 418 x 420 km, 51.6° (Epoch: 04 December)

Event Time Altitude Azimuth Distance (km) Brightness Sun altitude
Rises 18:57:20 0° 290° (WNW) 2,361 1.0 -17.2°
Reaches altitude 10° 19:00:06 10° 314° (NW) 1,498 -0.5 -17.7°
Maximum altitude 19:02:10 15° 352° (N) 1,218 -1.5 -18.1°
Enters shadow 19:02:32 15° 360° (N) 1,228 -1.5 -18.1°
